Location: Unspecified
(39.1360°N, 0.0000°E)
Time: 02:54:26
(UTC+00:00)

SL-14 DEB - Visible Passes

Search period start: 04 April 2026 00:00
Search period end: 14 April 2026 00:00
Orbit: 732 x 743 km, 82.5° (Epoch: 28 March)

Date Brightness Start Highest point End Pass type
(mag) Time Alt. Az. Time Alt. Az. Time Alt. Az.
4 Apr ? 19:21:07 10° N 19:26:10 86° W 19:31:13 10° S visible
5 Apr ? 20:16:52 10° NW 20:20:33 21° W 20:24:12 10° SW visible
6 Apr ? 19:30:23 10° NNW 19:35:14 49° W 19:40:04 10° SSW visible
7 Apr ? 20:27:38 10° WNW 20:29:21 12° W 20:31:04 10° WSW visible
8 Apr ? 19:39:54 10° NNW 19:44:09 28° W 19:48:25 10° SSW visible
9 Apr ? 18:53:43 10° NNW 18:58:44 69° W 19:03:44 10° S visible
10 Apr ? 19:49:51 10° NW 19:52:57 17° W 19:56:03 10° WSW visible
11 Apr ? 19:02:58 10° NNW 19:07:38 39° W 19:12:18 10° SSW visible
13 Apr ? 19:12:32 10° NW 19:16:26 23° W 19:20:20 10° SW visible
